Regional Weather Roundup
Issued by NWS Wakefield, VA

Home | Current Version | Previous Version | Text Only | Print | Product List | Glossary Off
Versions: 1 2 3 4 5 6 7 8 9 10 11 12 13 14 15 16 17 18 19 20 21 22 23 24 25 26 27 28 29 30 31 32 33 34 35 36 37 38 39 40 41 42 43 44 45 46 47 48 49 50

000
ASUS41 KAKQ 300010
RWRAKQ

REGIONAL WEATHER ROUNDUP
NATIONAL WEATHER SERVICE WAKEFIELD VA
800 PM EDT TUE JUL 29 2014

Note: "fair" indicates few or no clouds below 12,000 feet with no
significant weather and/or obstructions to visibility. * = Denotes
station may not report precipitation (e.g., rain,snow,etc.),
thunder or fog.

VAZ042-051-052>054-056-300100-
NORTHERN VIRGINIA

CITY           SKY/WX    TMP DP  RH WIND       PRES   REMARKS
WASH NATIONAL  PTCLDY    73  47  39 NW12      29.99R
DULLES         PTCLDY    68  44  42 NW10      30.00R
FORT BELVOIR   CLEAR     71  47  43 NW7       29.98S
QUANTICO       PTCLDY    70  49  47 N7        30.00R
FREDERICKSBRG* CLEAR     72  51  47 N3        29.98R
STAFFORD*      CLEAR     69  52  54 N5        30.04R
WARRENTON      CLEAR     69  57  67 N3        30.00R
CULPEPER*      PTCLDY   N/A N/A N/A CALM      30.01R
MANASSAS*      CLEAR     70  48  46 N7        30.00R
LEESBURG*      CLEAR     68  52  56 N5        30.01S
WINCHESTER     CLEAR     66  46  48 N5        30.01S
$$

VAZ048-049-060>072-079>083-300100-
CENTRAL AND SOUTH CENTRAL VIRGINIA...AND NORTH CENTRAL NORTH CAROLINA

CITY           SKY/WX    TMP DP  RH WIND       PRES   REMARKS
RICHMOND       MOCLDY    76  54  46 N7        29.96S
CHESTERFIELD*  MOCLDY    73  52  46 N3        29.98S
HANOVER        CLOUDY    71  59  65 CALM      29.98S
TAPPAHANNOCK*  PTCLDY    70  58  67 CALM      29.98S
CHARLOTTSVILLE CLOUDY    70  56  61 NE5       29.99R
ORANGE*        CLOUDY    68  52  56 N5        30.01S
LOUISA*        CLOUDY    70  57  64 NE5       29.98R
FARMVILLE*     PTCLDY    72  57  60 CALM      29.96R
SOUTH HILL*    CLEAR     75  61  60 CALM      30.01S
ROANOKE RAPIDS NOT AVBL
RALEIGH        PTCLDY    74  60  61 CALM      29.95S
$$

VAZ088>098-300100-
SOUTHEAST VIRGINIA

CITY           SKY/WX    TMP DP  RH WIND       PRES   REMARKS
NORFOLK        CLEAR     74  55  51 E6        29.95S
VIRGINIA BEACH PTCLDY    73  56  54 E3        29.95S
NORFOLK NAVAL  PTCLDY    74  57  55 E7        29.97S
WEST POINT*    CLEAR     74  58  58 CALM      29.97S
NEWPORT NEWS   CLEAR     74  62  66 N5        29.96R
LANGLEY AFB    CLEAR     74  57  55 E6        29.95R
FORT EUSTIS    CLEAR     76  56  48 NE2       29.94S
WILLIAMSBURG*  CLEAR     73  63  68 CALM      29.97R
FRANKLIN*      CLEAR     72  61  68 CALM      29.96R
WAKEFIELD      CLEAR     72  66  81 CALM      29.96R
$$

VAZ020-022-025-037-045-300100-
WESTERN AND SOUTHWEST VIRGINIA

CITY           SKY/WX    TMP DP  RH WIND       PRES   REMARKS
STAUNTON*      CLOUDY    68  53  59 E5        30.03R
HOT SPRINGS VA PTCLDY    55  46  71 N6        30.11R
LYNCHBURG      MOCLDY    70  62  76 CALM      30.00R
DANVILLE       CLEAR     74  60  61 S3        29.96S
MARTINSVILLE   CLOUDY    73  64  73 CALM      30.00R
ROANOKE        MOCLDY    73  52  47 N12       30.01R
BLACKSBURG     PTCLDY    70  55  60 NW8         N/A
DUBLIN*        PTCLDY    69  53  57 NW3       30.06R
MARION*        MOCLDY    64  52  64 NW3       30.10R
HILLSVILLE*    PTCLDY    67  51  55 NW8       30.06R
RICHLANDS*     CLOUDY    65  52  61 NW7       30.10R
WISE*          CLEAR     61  46  59 NW5       30.12S
ABINGDON*      CLEAR     67  51  56 N9        30.08R
$$

MDZ021>025-VAZ099-100-300100-
SOUTHERN MARYLAND AND THE DELMARVA PENINSULA

CITY           SKY/WX    TMP DP  RH WIND       PRES   REMARKS
PATUXENT RIVER PTCLDY    71  49  45 NW8       29.97R
BAY BRIDGE APT   N/A     72  52  49 W12       29.97S
LEONARDTOWN    CLEAR     70  50  49 CALM      29.99S
DOVER          CLEAR     70  55  59 W6        29.95R
GEORGETOWN     CLEAR     71  51  49 VRB5      29.97R
EASTON         CLEAR     72  55  56 CALM      30.00S
CAMBRIDGE      CLEAR     72  52  49 W3        29.96S
SALISBURY      NOT AVBL
OCEAN CITY     CLEAR     68  55  63 NW5       29.96R
WALLOPS ISLAND CLEAR     72  55  55 NW5       29.97R
ACCOMACK*        N/A     70  55  60 N3        29.96S
$$

NCZ012>017-030>032-300100-
EASTERN NORTH CAROLINA

CITY           SKY/WX    TMP DP  RH WIND       PRES   REMARKS
ELIZABETH CITY CLEAR     73  62  68 E9        29.96R
AHOSKIE*       CLEAR     71  63  75 CALM      29.96S
EDENTON*       CLEAR     74  66  75 E6        29.95S
CURRITUCK*     CLEAR     75  57  54 NE5       29.97R
KILL DEVIL HLS CLEAR     74  63  69 NE7       29.94S
MANTEO         NOT AVBL
CAPE HATTERAS  PTCLDY    75  66  73 NE8       29.94R
GOLDSBORO      CLEAR     76  64  66 NE8       29.93R
WASHINGTON     CLEAR     75  62  63 CALM      29.95S
GREENVILLE     CLEAR     73  63  68 CALM      29.96S
NEW BERN       CLEAR     78  64  61 NE8       29.94R
WILMINGTON     PTCLDY    80  69  69 SE3       29.92R
$$

VAZ048-300100-
ELSEWHERE

CITY           SKY/WX    TMP DP  RH WIND       PRES   REMARKS
HARRISBURG PA  MOCLDY    69  49  48 N6        29.98R
BALTIMORE      MOCLDY    70  51  51 NW8       29.98R
ANNAPOLIS      CLEAR     71  54  54 W7        29.97R
ANDREWS AFB    CLEAR     70  49  47 N8        29.98S
WILMINGTON DE  CLOUDY    70  58  65 NW8       29.97R
PHILADELPHIA   CLOUDY    74  52  46 NW9       29.96R
WILDWOOD NJ*   CLEAR     70  55  60 S6        29.97S
ATLANTIC CITY  CLOUDY    70  59  68 N3        29.95R
HENDERSON NC   CLEAR     72  62  70 CALM      29.96S
GREENSBORO     MOCLDY    75  56  51 SW6       29.96R
ROCKY MOUNT    CLEAR     74  62  66 CALM      29.95S
FAYETTEVILLE   MOCLDY    79  61  53 NE5       29.93R
CHARLOTTE      PTCLDY    77  55  46 CALM      29.96S
$$

VAZ100-300100-
MARINE

STATION/POSITION TIME  TEMP    WIND        PRES    WAVE   SWELL
                       AIR SEA DIR/SP/G            HT/PER HT/PER
                 (UTC) (F)     (DEG/KT/KT) (MB)    (FT/S) (FT/S)
44066 TX TWR #4  0000   71 75  250/  2/  4 1014.0R   3/ 8   3/ 8
CAPE MAY NJ      0000   70 79  150/  4/  5 1013.9F
LEWES DE         0000   72 74  270/  6/  7 1014.2R
15NM E FENWICK I 0000   72 75              1014.5S   2/ 7
OCEAN-CITY-INLET 0000   72 75  340/  6/  7 1014.2R
WACHAPREAGUE VA  0000   72 81  340/  1/  2 1014.6S
THOMAS POINT MD  0000   72 78  310/ 12/ 15 1015.4R
GOOSES REEF MD   0000   73     330/ 12/ 14 1015.2F
COVE POINT MD    0000   73     350/ 11/ 14 1014.7S
SOLOMONS ISLAND  0000      80                N/A
BISHOPS HEAD MD  0000   72 78  340/  6/  9 1014.3S
PINEY POINT MD   0000          360/ 12/ 13   N/A
POTOMAC MD       0000   74     360/ 10/ 12 1014.1S
CAMBRIDGE MD     0000   74 79  330/  9/ 13 1014.2F
LEWISETTA VA     0000   74 78  340/  7/ 10 1014.6R
RAPPAHANNOCK LGT 0000          350/  9/ 11 1015.1S
STINGRAY PT      0000   75     360/  8/ 12 1015.3S
YORK RVR RNG VA  0000   75      70/  9/ 11 1013.9R
YORKTOWN VA      0000   76 80   70/ 10/ 11 1014.1R
JAMESTOWN VA     0000   76      40/  4/  4   N/A
DOMINION TERM VA 0000   76      70/  6/  8 1014.4R
KIPTOPEKE VA     0000      82   50/  3/  4   N/A
CHES BAY BRIDGE  0000   75 78   40/  6/  7 1013.8S
CAPE HENRY VA    0000   74     100/  5/  6 1013.2S
WILLOUBY STN VA  0000          110/  8/  8 1013.5F
S CRANEY ISL VA  0000           50/  6/  7 1014.3S
CAPE HENRY BUOY  0000      78                N/A     2/ 8
1ST LANDING BUOY 0000   75      90/  6/  8 1014.0S
CAPE CHARLES BUO 0000      76                N/A     2/10
OFFSHORE WE BUOY 0000      78                N/A     2/ 8
64NM E OF VA BCH 0000   74 79   10/ 10/ 12 1014.0S   2/ 8   2/ 8
DUCK PIER NC     0000   74 73   40/ 11/ 13 1013.6R
44056 DUCK FRF   0000                        N/A     3/ 8
OREGON INLET NC  0000   75 78   20/ 10/ 14 1013.9R
HATTERAS NC      0000   76 81   40/  8/ 13 1014.0R
DIAMOND SHLS NC  0000          VRB 16/ 19  1013.0R   4/ 8   2/ 8
CAPE LOOKOUT NC  2300   78      50/ 12/ 14 1012.7R
$$



USA.gov is the U.S. government's official web portal to all federal, state and local government web resources and services.